Wind_Speed
11 12 12 12 12 11 10 10 10 10 10 9 8 7 5 4 3 2 1 1 2 2 3 4 5 5 4 4 3 2 2 2 2 3 3 3 3 3 3 3 3 4 4
12 14 13 13 13 12 11 11 10 10 10 10 9 8 6 5 4 3 2 2 3 3 4 4 4 4 4 3 2 2 1 1 1 2 2 2 2 3 3 3 3 4 4
13 14 15 14 14 13 13 12 11 11 11 11 10 9 7 6 5 5 4 4 5 5 5 5 5 4 4 3 2 2 1 1 1 1 2 2 2 3 3 3 3 4 4
14 15 16 15 15 14 14 13 13 13 12 12 11 10 9 8 7 6 6 6 6 6 6 6 5 5 4 3 3 2 2 2 1 1 2 2 2 3 3 3 4 4 4
17 16 17 17 16 16 15 14 14 14 14 13 12 11 11 10 9 8 8 8 7 7 7 6 6 5 5 4 4 3 3 2 2 2 2 2 3 3 4 4 4 4 4
17 17 17 17 17 17 16 16 15 15 15 14 14 13 12 12 11 10 10 9 9 8 8 7 7 6 6 5 4 4 4 3 3 2 2 3 3 4 4 4 4 5 5
16 16 17 16 17 17 17 17 17 17 16 16 15 15 14 14 13 12 11 11 10 9 9 8 8 7 7 6 6 5 5 4 4 4 3 4 4 5 5 5 5 5 5
16 17 17 18 18 18 18 18 18 18 18 17 17 17 16 15 14 14 13 12 12 11 10 10 9 9 8 7 7 7 6 6 5 5 5 5 5 6 6 6 6 6 6
18 17 17 17 18 18 19 19 19 19 19 19 19 18 18 17 16 15 15 14 13 12 12 11 11 10 10 9 9 8 8 7 7 7 7 7 7 7 7 7 8 7 7
16 17 17 18 19 19 20 20 21 20 20 20 20 20 19 18 17 17 16 15 14 14 13 12 12 12 12 11 10 10 9 9 9 9 9 9 9 9 9 9 10 10 9
17 17 18 19 20 21 22 22 21 21 21 21 21 21 20 19 18 18 17 16 16 15 14 14 13 14 13 13 12 12 11 11 11 10 10 10 11 11 11 12 12 12 12
17 18 18 19 20 21 22 23 22 22 22 21 22 22 21 20 19 19 18 18 17 16 16 15 15 15 15 15 14 14 14 13 13 13 13 13 13 13 14 15 15 15 15
18 18 19 19 20 22 22 23 23 23 22 22 22 22 21 21 20 20 19 19 18 18 17 17 17 17 17 17 17 17 16 16 16 16 15 15 15 15 16 16 17 18 18
18 19 19 21 20 21 22 24 24 25 24 23 23 22 22 22 22 21 20 20 20 19 19 19 19 19 18 18 19 19 19 18 18 18 17 17 18 18 18 19 19 20 20
19 20 20 21 20 22 23 23 24 24 25 25 24 23 24 24 23 23 22 21 21 21 20 20 20 20 21 21 21 21 21 21 20 20 20 20 20 20 20 20 21 21 21
22 22 21 21 22 23 24 24 24 25 25 25 25 25 24 24 23 23 24 23 23 22 22 22 22 22 22 22 22 23 23 23 23 23 23 23 23 23 23 23 23 23 24
25 24 22 22 23 23 24 25 26 26 26 27 26 26 25 25 24 24 25 25 24 24 24 23 23 23 24 24 24 25 25 25 25 25 25 25 25 25 26 26 26 26 25
27 26 24 23 23 23 23 24 25 26 26 27 27 27 27 27 27 27 26 26 26 26 25 26 25 25 25 25 26 26 26 26 27 27 28 27 28 28 28 28 28 28 28
28 27 26 25 24 23 23 24 22 23 25 26 27 28 29 30 29 29 28 28 28 28 27 27 28 27 27 27 28 28 28 28 28 29 29 29 30 31 31 30 31 31 30
31 29 27 26 25 25 23 23 22 22 24 26 27 28 28 29 30 29 30 29 29 29 29 28 29 29 29 30 30 31 31 31 30 30 31 31 33 34 34 34 34 34 34
33 31 29 28 27 26 24 23 22 22 24 25 26 27 27 28 29 30 31 30 29 29 29 29 29 30 30 31 31 31 31 32 33 33 33 33 34 34 35 36 37 37 37
33 33 31 30 29 27 25 24 24 23 23 24 26 27 27 28 29 30 30 31 30 30 30 30 30 30 30 30 31 32 32 32 33 34 34 35 36 37 37 38 38 39 40
33 33 32 31 30 29 26 25 24 24 24 25 25 25 23 24 27 29 30 28 28 30 31 31 31 31 32 32 32 32 32 33 34 35 36 37 39 39 40 41 42 42 43
33 33 33 32 31 29 28 27 26 26 25 24 24 23 22 23 24 26 28 29 28 29 29 31 30 30 31 31 32 33 34 35 36 37 38 39 40 41 42 43 45 45 46
31 32 32 32 31 30 29 29 29 27 26 25 24 25 24 23 23 26 27 28 29 30 30 30 31 32 32 31 32 33 34 35 37 38 38 39 40 41 43 44 46 47 48
30 31 31 31 30 29 29 28 27 26 26 25 25 25 24 25 25 27 28 29 29 30 31 31 30 29 30 31 33 34 35 37 37 39 40 41 42 43 45 46 47 49 50
Wind_Direction
202 195 194 193 194 197 200 202 203 204 201 197 192 188 187 185 184 193 237 298 318 331 337 333 330 330 326 321 319 318 318 324 333 337 337 338 335 332 333 330 323 314 308
208 203 200 200 199 201 204 209 212 213 212 208 203 200 200 205 214 227 251 272 288 303 310 311 313 312 309 303 297 284 280 289 309 323 328 328 321 322 327 325 320 313 307
215 212 208 203 200 204 208 212 217 220 220 218 214 211 211 217 226 239 253 266 278 287 291 293 294 292 286 280 267 248 242 252 275 301 306 307 307 316 323 322 320 316 310
221 219 212 207 205 207 212 216 220 223 224 223 222 221 222 227 235 246 255 263 271 276 277 278 278 271 265 258 246 236 238 248 264 292 295 291 298 314 323 321 317 315 310
227 222 214 213 214 214 216 219 223 227 228 227 227 226 228 233 239 247 253 259 264 269 267 267 265 256 251 245 239 237 242 248 258 281 297 291 292 301 310 313 312 311 307
229 224 220 219 220 221 222 223 226 230 230 231 232 232 234 237 240 245 249 254 258 259 258 258 254 248 246 242 236 237 240 241 251 273 285 289 292 296 300 303 304 306 303
229 224 225 225 227 229 230 230 231 232 233 233 235 237 238 239 242 244 246 249 251 251 250 249 246 244 245 242 237 237 237 239 248 263 272 281 284 287 288 291 294 299 300
229 225 225 229 231 235 236 235 235 236 236 236 237 238 239 240 241 243 245 246 247 246 245 244 243 242 243 241 237 235 237 243 250 259 270 276 276 277 277 280 283 288 291
229 228 230 233 237 239 241 240 239 239 239 239 239 240 240 240 240 242 243 244 243 243 242 241 241 240 240 239 237 235 237 244 249 257 264 269 272 273 273 275 277 282 285
238 234 238 241 242 243 242 243 242 241 241 241 241 240 240 240 240 240 241 242 242 242 240 239 239 238 238 238 237 237 239 245 251 255 261 266 270 272 271 273 276 279 280
248 243 241 242 245 243 243 244 244 243 242 242 242 241 240 240 239 239 239 240 241 241 238 238 237 237 238 238 238 239 242 246 251 255 261 267 271 273 273 274 276 277 277
252 246 243 244 245 246 245 244 245 244 243 242 241 241 241 240 239 240 240 240 241 240 237 237 236 237 239 239 240 242 245 249 253 257 262 267 272 274 275 275 276 276 275
255 249 244 244 246 246 242 241 241 242 242 242 241 241 241 241 241 241 241 241 242 241 238 238 238 238 239 241 243 245 248 252 257 260 265 269 273 275 276 277 277 276 276
253 246 244 246 248 246 245 244 239 240 243 243 242 241 243 244 243 241 242 243 244 242 239 239 240 240 241 243 246 247 250 255 259 262 265 269 273 275 277 279 280 279 278
252 246 246 246 246 248 250 248 244 242 244 243 241 244 245 243 243 243 243 243 243 242 239 240 242 243 244 246 248 249 251 255 260 264 266 270 273 276 278 280 283 282 281
249 248 249 251 253 256 256 253 247 243 247 246 244 243 244 242 243 242 244 243 242 240 240 243 245 245 246 248 249 250 252 256 260 264 267 271 273 275 277 278 280 281 282
248 252 253 254 255 257 257 254 247 246 247 245 243 245 245 244 240 242 244 244 243 242 241 244 246 248 249 250 250 252 254 258 261 264 268 271 274 276 277 278 277 278 278
247 251 253 255 257 260 261 260 253 249 248 245 244 244 244 243 243 243 243 244 246 244 244 245 248 248 251 252 251 254 257 260 264 267 269 271 274 276 277 278 278 277 277
246 250 251 256 258 262 263 261 261 258 251 249 248 244 244 244 243 243 243 246 246 245 244 246 248 250 252 253 254 256 259 262 265 268 271 273 274 276 276 277 277 277 276
244 248 251 255 257 258 260 262 260 259 257 254 253 247 245 244 245 246 245 246 245 243 243 247 249 251 254 257 258 259 261 263 266 269 272 273 274 275 275 276 277 276 275
242 246 250 252 257 259 263 266 268 266 263 259 254 250 247 245 243 245 245 245 246 245 245 248 252 253 255 257 259 261 263 265 268 270 272 274 275 275 275 275 275 275 276
244 247 250 252 256 260 263 266 265 266 264 260 255 253 249 246 244 244 245 247 248 249 250 250 252 253 256 260 261 263 266 268 268 269 271 274 276 276 276 276 276 275 276
243 246 250 253 256 259 263 265 264 266 267 265 259 256 253 249 245 244 245 248 250 250 253 254 255 256 258 260 262 263 265 268 269 270 272 274 275 276 276 275 276 276 276
243 245 249 252 256 259 260 260 261 264 266 266 261 258 254 251 250 247 245 250 252 253 255 254 255 256 258 260 261 263 266 269 271 271 272 273 274 275 276 276 277 278 278
242 245 248 251 255 259 260 258 258 260 263 264 263 260 257 254 252 252 251 252 255 255 257 258 258 258 259 261 262 265 267 269 271 272 273 274 275 275 276 276 277 278 279
241 244 247 250 255 257 258 259 258 259 262 262 260 258 255 253 253 253 252 253 256 257 259 260 261 262 263 264 265 266 268 269 270 272 274 275 276 276 277 277 278 279 279
Height
5897 5897 5898 5898 5899 5899 5901 5902 5903 5904 5904 5904 5905 5905 5905 5905 5906 5906 5906 5906 5906 5906 5906 5906 5906 5905 5905 5904 5904 5904 5904 5903 5903 5903 5902 5902 5902 5901 5901 5901 5900 5900 5900
5895 5896 5896 5897 5897 5898 5899 5900 5901 5902 5903 5903 5903 5903 5904 5904 5904 5905 5905 5905 5905 5905 5905 5905 5904 5904 5904 5904 5903 5903 5903 5903 5903 5902 5902 5901 5901 5901 5901 5900 5900 5899 5899
5893 5893 5894 5895 5896 5897 5897 5898 5900 5900 5901 5901 5902 5902 5902 5902 5903 5903 5903 5904 5904 5904 5903 5903 5903 5903 5903 5903 5903 5903 5902 5902 5902 5901 5901 5901 5900 5900 5900 5899 5899 5898 5898
5890 5890 5892 5893 5894 5894 5895 5896 5897 5898 5899 5899 5900 5900 5900 5901 5901 5902 5902 5902 5902 5902 5902 5902 5902 5902 5902 5902 5902 5901 5901 5901 5901 5901 5901 5900 5900 5899 5899 5899 5898 5898 5897
5887 5888 5889 5890 5891 5892 5893 5894 5895 5896 5897 5897 5898 5898 5898 5899 5899 5900 5900 5900 5900 5900 5900 5900 5900 5900 5900 5900 5900 5900 5900 5900 5900 5900 5899 5899 5899 5899 5898 5898 5897 5897 5897
5884 5885 5886 5887 5889 5890 5891 5892 5893 5894 5894 5895 5895 5895 5896 5896 5897 5897 5898 5898 5898 5898 5898 5898 5898 5899 5899 5899 5899 5899 5899 5899 5899 5899 5898 5898 5898 5898 5897 5897 5897 5896 5896
5881 5882 5883 5885 5886 5887 5888 5889 5890 5891 5891 5892 5892 5893 5893 5894 5894 5895 5895 5896 5896 5896 5896 5896 5897 5897 5897 5897 5898 5898 5898 5898 5898 5897 5897 5897 5897 5897 5896 5896 5896 5895 5894
5878 5879 5880 5882 5883 5884 5885 5886 5887 5887 5888 5888 5889 5889 5890 5891 5891 5892 5893 5893 5894 5894 5894 5894 5895 5895 5895 5896 5896 5896 5897 5896 5896 5896 5896 5896 5896 5895 5895 5895 5895 5894 5893
5876 5876 5877 5879 5880 5881 5882 5883 5884 5884 5885 5885 5886 5886 5887 5888 5888 5889 5890 5891 5891 5892 5892 5892 5892 5893 5893 5894 5894 5895 5895 5895 5895 5895 5895 5895 5894 5894 5894 5894 5893 5893 5892
5873 5874 5875 5876 5877 5877 5878 5879 5880 5880 5881 5882 5882 5883 5883 5884 5885 5886 5887 5888 5888 5889 5889 5890 5890 5891 5891 5892 5893 5893 5893 5893 5893 5893 5893 5893 5893 5893 5892 5892 5891 5891 5890
5870 5871 5871 5872 5873 5874 5874 5875 5876 5876 5877 5877 5878 5879 5879 5880 5881 5882 5883 5885 5886 5886 5887 5887 5888 5888 5889 5889 5890 5891 5891 5891 5891 5891 5891 5891 5891 5891 5890 5890 5889 5889 5888
5867 5867 5867 5868 5869 5869 5870 5870 5871 5872 5872 5873 5874 5875 5876 5877 5878 5879 5880 5881 5882 5883 5884 5885 5885 5885 5886 5887 5887 5888 5888 5889 5889 5889 5889 5889 5889 5888 5888 5887 5887 5886 5885
5863 5863 5863 5864 5864 5865 5865 5866 5867 5867 5868 5869 5870 5871 5872 5873 5874 5875 5876 5877 5879 5880 5881 5882 5882 5883 5883 5884 5885 5885 5886 5886 5886 5886 5886 5886 5886 5885 5884 5884 5883 5883 5882
5859 5859 5859 5860 5860 5860 5860 5861 5861 5862 5863 5864 5865 5866 5867 5868 5869 5870 5872 5873 5875 5876 5877 5878 5879 5880 5880 5881 5881 5882 5882 5883 5883 5883 5883 5883 5882 5882 5881 5880 5880 5879 5878
5855 5855 5855 5856 5857 5856 5856 5856 5856 5857 5858 5860 5861 5861 5862 5863 5865 5866 5867 5869 5870 5872 5873 5875 5876 5876 5877 5877 5878 5878 5878 5879 5879 5879 5879 5879 5878 5878 5877 5876 5876 5874 5874
5850 5851 5852 5852 5852 5852 5852 5852 5852 5853 5853 5854 5856 5857 5857 5859 5860 5862 5863 5864 5865 5867 5869 5870 5872 5872 5873 5873 5874 5874 5874 5874 5875 5875 5874 5874 5874 5873 5873 5872 5871 5870 5869
5846 5846 5847 5848 5848 5848 5848 5847 5846 5846 5848 5848 5850 5851 5852 5854 5855 5857 5859 5860 5861 5863 5864 5865 5867 5868 5869 5869 5870 5870 5870 5870 5870 5870 5870 5869 5869 5868 5867 5866 5866 5865 5864
5841 5842 5842 5843 5843 5843 5842 5841 5840 5841 5843 5843 5844 5845 5846 5849 5850 5852 5853 5855 5856 5858 5859 5861 5862 5863 5864 5864 5865 5865 5865 5865 5865 5865 5864 5864 5863 5862 5861 5861 5860 5859 5858
5835 5836 5837 5838 5838 5838 5838 5837 5837 5836 5837 5838 5839 5839 5841 5843 5845 5847 5848 5849 5851 5852 5854 5855 5856 5857 5858 5859 5859 5860 5860 5860 5860 5859 5859 5858 5857 5856 5855 5854 5853 5853 5852
5829 5831 5832 5833 5833 5833 5833 5832 5832 5832 5833 5833 5833 5833 5835 5837 5839 5841 5842 5844 5845 5846 5848 5849 5851 5852 5853 5853 5854 5854 5854 5854 5854 5854 5853 5852 5851 5849 5848 5847 5846 5845 5844
5823 5824 5825 5827 5827 5827 5828 5828 5828 5828 5828 5828 5828 5828 5829 5831 5833 5835 5837 5838 5839 5840 5842 5843 5845 5846 5846 5847 5847 5848 5848 5847 5847 5847 5846 5845 5843 5842 5841 5840 5839 5837 5836
5816 5818 5819 5821 5822 5822 5823 5823 5823 5823 5824 5824 5824 5823 5824 5826 5827 5829 5830 5832 5834 5835 5836 5837 5838 5839 5840 5840 5841 5841 5841 5841 5840 5839 5838 5837 5836 5835 5833 5832 5830 5829 5828
5810 5812 5813 5815 5816 5816 5817 5817 5818 5818 5818 5818 5818 5817 5818 5819 5821 5823 5825 5826 5827 5828 5830 5831 5832 5832 5833 5833 5833 5834 5834 5833 5832 5831 5830 5829 5828 5826 5825 5823 5822 5820 5818
5803 5805 5807 5809 5810 5811 5811 5811 5811 5811 5812 5812 5812 5813 5814 5814 5815 5817 5818 5820 5821 5822 5822 5824 5825 5825 5826 5826 5826 5826 5826 5825 5824 5823 5822 5820 5819 5817 5815 5814 5812 5810 5808
5796 5798 5800 5802 5803 5804 5805 5805 5805 5806 5806 5806 5807 5807 5808 5809 5810 5811 5812 5813 5814 5815 5816 5817 5817 5818 5818 5818 5818 5818 5818 5817 5816 5814 5813 5811 5810 5808 5806 5804 5802 5800 5797
5790 5792 5794 5795 5796 5797 5798 5799 5799 5800 5800 5800 5801 5801 5802 5803 5805 5806 5806 5807 5808 5809 5809 5809 5810 5810 5810 5810 5810 5810 5809 5808 5807 5805 5803 5801 5799 5798 5795 5793 5791 5788 5786